Lake McConaughy Weather Center

Moon Phase Calendar



Lake McConaughy Water Level
Online Cameras

 


      

Current Conditions in Keith
9/25/2021 3:41:22 PM

88°F
Feels Like 84
Clear
Humidity
13%
Pressure
29.94"
Wind
5.8 mph (W)
Dew Point
31°F
UV Index
2/10 (Low)
Visibility
6 mi

Hourly Forecast

Date & Time Sat, Sep 25
3:00 PM
Sat, Sep 25
4:00 PM
Sat, Sep 25
5:00 PM
Sat, Sep 25
6:00 PM
Sat, Sep 25
7:00 PM
Sat, Sep 25
8:00 PM
Sat, Sep 25
9:00 PM
Sat, Sep 25
10:00 PM
Sat, Sep 25
11:00 PM
Sun, Sep 26
12:00 AM
Sun, Sep 26
1:00 AM
Sun, Sep 26
2:00 AM
Sun, Sep 26
3:00 AM
Sun, Sep 26
4:00 AM
Sun, Sep 26
5:00 AM
Sun, Sep 26
6:00 AM
Sun, Sep 26
7:00 AM
Sun, Sep 26
8:00 AM
Sun, Sep 26
9:00 AM
Sun, Sep 26
10:00 AM
Sun, Sep 26
11:00 AM
Sun, Sep 26
12:00 PM
Sun, Sep 26
1:00 PM
Sun, Sep 26
2:00 PM
Sun, Sep 26
3:00 PM
Sun, Sep 26
4:00 PM
Sun, Sep 26
5:00 PM
Sun, Sep 26
6:00 PM
Sun, Sep 26
7:00 PM
Sun, Sep 26
8:00 PM
Sun, Sep 26
9:00 PM
Sun, Sep 26
10:00 PM
Sun, Sep 26
11:00 PM
Mon, Sep 27
12:00 AM
Mon, Sep 27
1:00 AM
Mon, Sep 27
2:00 AM
Mon, Sep 27
3:00 AM
Mon, Sep 27
4:00 AM
Mon, Sep 27
5:00 AM
Mon, Sep 27
6:00 AM
Mon, Sep 27
7:00 AM
Mon, Sep 27
8:00 AM
Mon, Sep 27
9:00 AM
Mon, Sep 27
10:00 AM
Mon, Sep 27
11:00 AM
Mon, Sep 27
12:00 PM
Mon, Sep 27
1:00 PM
Mon, Sep 27
2:00 PM
Condition
Clear

Clear

Clear

Clear

Clear

Clear

Clear

Clear

Clear

Clear

Clear

Clear

Clear

Clear

Clear

Clear

Clear

Clear

Clear

Clear

Clear

Clear

Clear

Clear

Clear

Clear

Clear

Clear

Clear

Clear

Clear

Clear

Clear

Clear

Clear

Clear

Clear

Clear

Clear

Clear

Clear

Clear

Clear

Clear

Clear

Clear

Clear

Clear
Temperature 88°F88°F88°F85°F80°F75°F69°F67°F66°F65°F64°F63°F62°F62°F62°F62°F63°F68°F75°F82°F87°F90°F92°F93°F93°F92°F91°F85°F78°F74°F71°F69°F68°F65°F62°F64°F62°F61°F62°F61°F62°F69°F76°F82°F86°F89°F92°F93°F
Feels Like 84°F84°F84°F82°F78°F74°F67°F65°F64°F63°F62°F61°F60°F60°F60°F60°F60°F65°F73°F80°F83°F86°F88°F88°F89°F88°F87°F82°F76°F72°F69°F67°F66°F63°F60°F61°F59°F58°F59°F59°F59°F67°F75°F80°F83°F85°F87°F89°F
Cloudiness 3%1%2%3%0%0%0%0%0%1%0%0%0%0%0%0%0%0%0%0%0%0%0%0%0%0%0%0%0%0%0%0%0%0%0%0%0%0%0%0%0%0%0%0%0%0%0%0%
Visibility 6 mi6 mi6 mi6 mi6 mi6 mi6 mi6 mi6 mi6 mi6 mi6 mi6 mi6 mi6 mi6 mi6 mi6 mi6 mi6 mi6 mi6 mi6 mi6 mi6 mi6 mi6 mi6 mi6 mi6 mi6 mi6 mi6 mi6 mi6 mi6 mi6 mi6 mi6 mi6 mi6 mi6 mi6 mi6 mi6 mi6 mi6 mi6 mi
Precipitation 0%0%0%0%0%0%0%0%0%0%0%0%0%0%0%0%0%0%0%0%0%0%0%0%0%0%0%0%0%0%0%0%0%0%0%0%0%0%0%0%0%0%0%0%0%0%0%0%
Humidity 13%13%13%15%16%19%23%26%26%29%34%37%39%38%36%31%27%23%18%15%13%12%11%10%10%10%11%15%18%21%23%25%26%29%36%31%32%35%33%32%32%25%20%16%14%12%11%10%
Dew Point 31°F31°F31°F32°F30°F31°F29°F31°F30°F32°F34°F36°F36°F36°F35°F31°F28°F28°F28°F29°F30°F30°F30°F29°F29°F29°F30°F32°F31°F31°F32°F32°F32°F32°F34°F32°F32°F33°F32°F31°F31°F32°F32°F31°F31°F30°F29°F28°F
Pressure 29.91"29.94"29.91"29.85"29.83"29.8"29.77"29.77"29.8"29.77"29.77"29.77"29.74"29.74"29.74"29.74"29.74"29.74"29.74"29.71"29.71"29.68"29.65"29.62"29.62"29.62"29.62"29.65"29.68"29.71"29.74"29.74"29.74"29.77"29.77"29.77"29.8"29.77"29.8"29.8"29.8"29.8"29.8"29.77"29.77"29.74"29.71"29.68"
Wind Speed 8.4 mph8.1 mph7.7 mph6.7 mph8.3 mph8.8 mph8.9 mph10 mph10.2 mph9.8 mph8.9 mph8.9 mph8.6 mph8.4 mph8.4 mph8.3 mph9.2 mph8.9 mph15.8 mph16.9 mph16.6 mph16 mph15 mph13.4 mph11.9 mph11 mph10.5 mph8.5 mph9.4 mph9.6 mph8.2 mph7.3 mph7 mph5.5 mph2.8 mph5.5 mph5.1 mph4 mph5.3 mph5.4 mph5.5 mph4.1 mph5.3 mph5.8 mph5.4 mph4.2 mph2.7 mph2.4 mph
Wind
Direction
250°
WSW
235°
SW
222°
SW
178°
S
161°
SSE
167°
SSE
175°
S
197°
SSW
213°
SSW
219°
SW
225°
SW
219°
SW
226°
SW
245°
WSW
259°
W
267°
W
278°
W
279°
W
299°
WNW
303°
WNW
301°
WNW
302°
WNW
308°
NW
315°
NW
321°
NW
329°
NNW
345°
NNW
12°
NNE
35°
NE
53°
NE
66°
ENE
90°
E
117°
ESE
136°
SE
165°
SSE
224°
SW
227°
SW
235°
SW
221°
SW
235°
SW
252°
WSW
237°
WSW
228°
SW
232°
SW
221°
SW
218°
SW
225°
SW
232°
SW

Daily Forecast

Date High Low Precip. Humidity
Today
Sep 25

Clouds
88 °F
49 °F
0%
20%
Sunday
Sep 26

Clear
93 °F
62 °F
0%
12%
Monday
Sep 27

Clear
94 °F
61 °F
0%
12%
Tuesday
Sep 28

Clouds
90 °F
63 °F
0%
20%
Wednesday
Sep 29

Rain
77 °F
57 °F
65%
37%
Thursday
Sep 30

Clouds
70 °F
52 °F
17%
19%
Friday
Oct 1

Clouds
74 °F
45 °F
0%
21%
Saturday
Oct 2

Rain
63 °F
57 °F
100%
98%
Sunday
Oct 3

Clouds
68 °F
56 °F
29%
56%
Monday
Oct 4

Rain
72 °F
55 °F
28%
61%
Tuesday
Oct 5

Clear
82 °F
56 °F
0%
12%
Wednesday
Oct 6

Clouds
86 °F
60 °F
0%
14%
Thursday
Oct 7

Clouds
84 °F
61 °F
0%
21%
Friday
Oct 8

Clouds
85 °F
63 °F
0%
34%
Saturday
Oct 9

Clouds
84 °F
63 °F
0%
41%
Sunday
Oct 10

Clouds
88 °F
69 °F
6%
35%

Temperature 8-14 Day Outlook



Precipitation 8-14 Day Outlook




Quick Links
Lake McConaughy News
Lake McConaughy Photos
Lake McConaughy Videos




About Us
Contact Us
Site Map
Search Site
Advertise With Us
   
McConaughy.USLakes.info
THE LAKE MCCONAUGHY WEBSITE

Copyright 2021, Lakes Online
Privacy    |    Legal